Location: Misciano
(43.5000°N, 11.9500°E)
Time: 05:31:50
(UTC+00:00)

SJ-6B - Pass Details

Date: 13 August 2020
Orbit: 509 x 582 km, 97.6° (Epoch: 19 September)

Event Time Altitude Azimuth Distance (km) Brightness Sun altitude
Rises 19:29:56 0° 185° (S) 2,765 6.1 -12.4°
Reaches altitude 10° 19:32:13 10° 194° (SSW) 1,864 5.3 -12.7°
Maximum altitude 19:35:58 37° 262° (W) 885 4.3 -13.3°
Drops below altitude 10° 19:39:41 10° 331° (NNW) 1,841 6.6 -13.9°
Sets 19:41:55 0° 340° (NNW) 2,727 7.4 -14.2°
